Terminal Aerodrome Forecast
Issued by NWS

Home | Current Version | Previous Version | Text Only | Print | Product List | Glossary On
Versions: 1 2 3 4 5 6 7 8 9 10 11 12 13 14 15 16 17 18 19 20 21 22 23 24 25 26 27 28 29 30 31
000
FTUS43 KPAH 300500
TAFOWB
TAF
KOWB 300520Z 3006/3106 00000KT P6SM SKC
     FM301500 27005KT P6SM SCT040 BKN250
     FM310100 00000KT P6SM SKC=

USA.gov is the U.S. government's official web portal to all federal, state and local government web resources and services.